TimeEST,TemperatureF,Dew PointF,Humidity,Sea Level PressureIn,VisibilityMPH,Wind Direction,Wind SpeedMPH,Gust SpeedMPH,PrecipitationIn,Events,Conditions,WindDirDegrees,DateUTC
12:52 AM,36.0,21.0,55,29.80,10.0,West,10.4,-,N/A,,Mostly Cloudy,270,2012-11-25 05:52:00
1:52 AM,35.1,21.0,57,29.81,10.0,West,9.2,18.4,N/A,,Clear,270,2012-11-25 06:52:00
2:52 AM,35.1,19.0,52,29.82,10.0,West,10.4,20.7,N/A,,Clear,280,2012-11-25 07:52:00
3:52 AM,35.1,18.0,50,29.83,10.0,West,10.4,18.4,N/A,,Mostly Cloudy,280,2012-11-25 08:52:00
4:52 AM,35.1,17.1,48,29.86,10.0,West,11.5,-,N/A,,Clear,270,2012-11-25 09:52:00
5:52 AM,34.0,18.0,52,29.87,10.0,West,10.4,-,N/A,,Clear,260,2012-11-25 10:52:00
6:52 AM,33.1,18.0,54,29.88,10.0,West,10.4,19.6,N/A,,Clear,280,2012-11-25 11:52:00
7:52 AM,35.1,17.1,48,29.90,10.0,West,8.1,-,N/A,,Clear,270,2012-11-25 12:52:00
8:52 AM,36.0,16.0,44,29.90,10.0,West,16.1,21.9,N/A,,Clear,280,2012-11-25 13:52:00
9:52 AM,37.0,16.0,42,29.88,10.0,West,11.5,21.9,N/A,,Clear,280,2012-11-25 14:52:00
10:52 AM,39.0,17.1,41,29.87,10.0,West,10.4,23.0,N/A,,Clear,280,2012-11-25 15:52:00
11:52 AM,41.0,17.1,38,29.86,10.0,West,17.3,26.5,N/A,,Clear,280,2012-11-25 16:52:00
12:52 PM,42.1,17.1,37,29.84,10.0,West,15.0,24.2,N/A,,Mostly Cloudy,280,2012-11-25 17:52:00
1:52 PM,42.1,18.0,38,29.83,10.0,WNW,15.0,21.9,N/A,,Mostly Cloudy,290,2012-11-25 18:52:00
2:52 PM,42.1,21.0,43,29.83,10.0,West,12.7,20.7,N/A,,Overcast,260,2012-11-25 19:52:00
3:52 PM,39.9,21.9,49,29.85,10.0,West,10.4,18.4,N/A,,Scattered Clouds,260,2012-11-25 20:52:00
4:52 PM,39.0,23.0,53,29.86,10.0,West,9.2,-,N/A,,Clear,270,2012-11-25 21:52:00
5:52 PM,37.9,24.1,57,29.88,10.0,West,5.8,-,N/A,,Clear,260,2012-11-25 22:52:00
6:52 PM,37.0,24.1,59,29.90,10.0,West,6.9,-,N/A,,Scattered Clouds,260,2012-11-25 23:52:00
7:52 PM,39.0,23.0,53,29.91,10.0,WSW,11.5,-,N/A,,Overcast,250,2012-11-26 00:52:00
8:52 PM,39.0,23.0,53,29.93,10.0,West,15.0,21.9,N/A,,Overcast,260,2012-11-26 01:52:00
9:52 PM,37.9,21.9,53,29.94,10.0,WSW,11.5,23.0,N/A,,Overcast,250,2012-11-26 02:52:00
10:52 PM,37.9,23.0,55,29.94,10.0,WSW,10.4,19.6,N/A,,Mostly Cloudy,250,2012-11-26 03:52:00
11:52 PM,37.0,23.0,57,29.95,10.0,WSW,12.7,20.7,N/A,,Partly Cloudy,250,2012-11-26 04:52:00